Location: Unspecified
(0.0000°N, 0.0000°E)
Time: 13:37:54
(UTC+00:00)

STARLINK-35347 - Pass Details

Date: 21 February 2026
Orbit: 474 x 476 km, 53.2° (Epoch: 14 March)

Event Time Altitude Azimuth Distance (km) Brightness Sun altitude
Rises 18:54:48 0° 197° (SSW) 2,517 6.4 -10.1°
Reaches altitude 10° 18:57:09 10° 186° (S) 1,636 5.3 -10.7°
Maximum altitude 19:00:24 29° 124° (SE) 892 3.3 -11.5°
Enters shadow 19:02:16 19° 77° (ENE) 1,193 3.7 -12.0°
